Regional Weather Roundup
Issued by NWS Sterling, VA

Home | Current Version | Previous Version | Graphics & Text | Print | Product List | Glossary On
Versions: 1 2 3 4 5 6 7 8 9 10 11 12 13 14 15 16 17 18 19 20 21 22 23 24 25 26 27 28 29 30 31 32 33 34 35 36 37 38 39 40 41 42 43 44 45 46 47 48 49 50
000
ASUS41 KLWX 300910
RWRLWX

REGIONAL WEATHER ROUNDUP
NATIONAL WEATHER SERVICE BALTIMORE MD/WASHINGTON DC
500 AM EDT WED JUL 30 2014

Note: "FAIR" indicates few or no clouds below 12,000 feet
with no significant weather and/or obstructions to visibility.
 TC=TEMPERATURE CELSIUS

 * =Non NWS site. Station does not report precipitation (e.g. rain,
    snow, etc.), thunder, or fog.

DCZ001-MDZ009-015-VAZ040>042-051-053>054-301000-
WASHINGTON METRO
  /KDAA//-FT BELVOIR

CITY           SKY/WX    TMP DP  RH WIND       PRES   REMARKS
WASHINGTON NAT MOCLDY    61  50  67 N3        30.03S
DULLES         CLEAR     50  48  93 CALM      30.04R
ANDREWS AFB    CLEAR     57  51  80 CALM      30.03R
QUANTICO       CLEAR     56  51  84 NW6       30.05R
COLLEGE PARK*  CLEAR     54  54 100 CALM      30.03R
LEESBURG*      CLEAR     52  52 100 CALM      30.05R
MANASSAS*      CLEAR     52  52 100 CALM      30.04S
GAITHERSBURG*  CLEAR     52  48  87 CALM      30.07S

$$

MDZ006>007-011-014-301000-
BALTIMORE METRO

CITY           SKY/WX    TMP DP  RH WIND       PRES   REMARKS
BWI AIRPORT    CLEAR     56  50  80 W5        30.02R
MD SCIENCE CTR   N/A     63  51  65 MISG      30.02R
MARTIN STATE   CLEAR     59  55  88 CALM      30.03R
ANNAPOLIS      CLEAR     59  51  75 W6        30.02R
FORT MEADE*    CLEAR     52  50  93 CALM      30.05R

$$

MDZ012-015-019>023-301000-
MARYLAND EASTERN SHORE

CITY           SKY/WX    TMP DP  RH WIND       PRES   REMARKS
OCEAN CITY     CLEAR     57  54  89 NW3       30.00R
SALISBURY      NOT AVBL
BAY BRIDGE AP*   N/A     63  54  72 NW5       30.02R
CAMBRIDGE*     CLEAR     59  55  88 CALM      30.01R
EASTON*        CLEAR     61  61 100 CALM      30.05R

$$

MDZ017>025-301000-
SOUTHERN MARYLAND

CITY           SKY/WX    TMP DP  RH WIND       PRES   REMARKS
PATUXENT RIVER PTCLDY    57  51  80 W6        30.02R
ST INIGOES     CLEAR     59  51  75 CALM      30.02R
LEONARDTOWN*   CLEAR     54  48  82 CALM      30.04R

$$

MDZ003>005-301000-
NORTH CENTRAL MARYLAND

CITY           SKY/WX    TMP DP  RH WIND       PRES   REMARKS
FREDERICK*     CLEAR     54  54 100 SE3       30.06S
HAGERSTOWN APT CLEAR     54  50  86 SE3       30.04S
WESTMINSTER*   PTCLDY    55  52  88 CALM      30.03S

$$

MDZ501>502-301000-
WESTERN MARYLAND

CITY           SKY/WX    TMP DP  RH WIND       PRES   REMARKS
OAKLAND*       CLEAR     46 N/A N/A SW6       30.09R
CUMBERLAND*    CLEAR     50  46  87 CALM      30.10S

$$

VAZ025>031-301000-
SHENANDOAH VALLEY

CITY           SKY/WX    TMP DP  RH WIND       PRES   REMARKS
WINCHESTER*    CLEAR     54  50  87 SW5       30.05R
STAUNTON*      CLEAR     51  49  92 CALM      30.10R

$$

WVZ021-048>050-054>055-301000-
EASTERN WEST VIRGINIA PANHANDLE

CITY           SKY/WX    TMP DP  RH WIND       PRES   REMARKS
MARTINSBURG    CLEAR     51  47  86 CALM      30.04S
PETERSBURG*    MOCLDY    49  46  88 CALM      30.09R

$$

VAZ036>039-050-301000-
CENTRAL FOOTHILLS

CITY           SKY/WX    TMP DP  RH WIND       PRES   REMARKS
CHARLOTTESVILL PTCLDY    56  53  90 CALM      30.05S
ORANGE*        CLEAR     52  50  93 CALM      30.06S

$$

VAZ055>057-301000-
NORTH AND CENTRAL PIEDMONT

CITY           SKY/WX    TMP DP  RH WIND       PRES   REMARKS
FREDERICKSBRG* CLEAR     57  53  88 CALM      30.04R
STAFFORD*      CLEAR     52  52 100 CALM      30.08R

$$

NCZ024-NYZ072-PAZ021-071-VAZ022-071-301000-
OTHER REGIONAL OBSERVATIONS

CITY           SKY/WX    TMP DP  RH WIND       PRES   REMARKS
NEW YORK CITY  CLEAR     64  53  67 VRB5      30.01R
PHILADELPHIA   PTCLDY    63  52  67 N7        30.00R
PITTSBURGH     PTCLDY    53  50  89 CALM      30.03S
ROANOKE        PTCLDY    58  52  80 CALM      30.11R
RICHMOND       MOCLDY    65  51  60 NW3       30.04R
RALEIGH        PTCLDY    65  59  81 NE5       30.04R

$$

ANZ530>537-301000-
MARINE OBSERVATIONS

STATION/POSITION TIME  TEMP    WIND        PRES
                       AIR SEA DIR/SP/G
                 (UTC) (F)     (DEG/KT/KT) (MB)
THOMAS PT LIGHT  0900   64 77  310/ 10/ 12 1017.0R
BALT KEY BRIDGE  0900          270/  9/  9 1016.1S
COVE POINT       0900   64     320/  7/  9 1016.2R
LEWISETTA        0900   65 76  290/  4/  5 1016.3R
SOLOMONS ISLAND  0900      79                N/A
PINEY POINT      0900          360/  8/  9   N/A

$$



USA.gov is the U.S. government's official web portal to all federal, state and local government web resources and services.